Location: Gwatt
(46.7204°N, 7.6223°E)
Time: 22:57:58
(UTC+00:00)

Tiros 1 despin weight - Pass Details

Date: 29 January 2021
Orbit: 593 x 642 km, 48.2° (Epoch: 08 March)

Event Time Altitude Azimuth Distance (km) Brightness Sun altitude
Rises 18:17:28 0° 283° (WNW) 2,859 ? -18.7°
Reaches altitude 10° 18:20:22 10° 264° (W) 1,943 ? -19.2°
Maximum altitude 18:23:21 18° 222° (SW) 1,488 ? -19.7°
Drops below altitude 10° 18:26:19 10° 179° (S) 1,922 ? -20.2°
Enters shadow 18:28:36 - 163° (SSE) 2,618 ? -20.6°
